This demonstration page uses our WeatherBlox Daily Observations layout. Learn more.

Left ArrowRight Arrow

38.20091, -84.87328

Hourly Observations for April 11, 2022

Temp ( °F °C ) Dew Point ( °F °C ) Humidity (%) Winds ( mph kmh ) Pressure ( in mb ) Visibility ( mi km ) Precip ( " mm )
12:53 am 00:53 Clear 57 13.9 36 2.2 45 45 S 6 9 29.88 1012 10 16 0.00 0.00
1:53 am 01:53 Clear 59 15 37 2.8 44 44 S 9 15 29.88 1012 10 16 0.00 0.00
2:53 am 02:53 Clear 60 15.6 37 2.8 42 42 S 9 15 29.86 1011 10 16 0.00 0.00
3:53 am 03:53 Clear 62 16.7 38 3.3 41 41 S 12 19 29.85 1011 10 16 0.00 0.00
4:53 am 04:53 Clear 64 17.8 39 3.9 40 40 SSW 14 22 29.85 1011 10 16 0.00 0.00
5:53 am 05:53 Clear 65 18.3 40 4.4 40 40 S 13 20 29.85 1011 10 16 0.00 0.00
6:32 am 06:32 Mostly Cloudy with Thunderstorms 63 17.2 42 5.6 47 47 SSW 10 17 29.88 1012 10 16 0.00 0.00
6:53 am 06:53 Mostly Cloudy with Nearby Thunderstorms 62 16.7 43 6.1 50 50 SSW 12 19 29.88 1012 10 16 0.00 0.00
7:09 am 07:09 Mostly Cloudy 62 16.7 43 6.1 50 50 S 9 15 29.89 1012 10 16 0.00 0.00
7:53 am 07:53 Cloudy 62 16.7 43 6.1 50 50 SSW 13 20 29.90 1013 10 16 0.00 0.00
8:22 am 08:22 Cloudy with Nearby Thunderstorms 63 17.2 43 6.1 48 48 SSW 15 24 29.92 1013 10 16 0.00 0.00
8:53 am 08:53 Mostly Cloudy 58 14.4 49 9.4 72 72 SSW 9 15 29.93 1013 10 16 0.02 0.51
9:53 am 09:53 Partly Cloudy 62 16.7 49 9.4 62 62 SSW 15 24 29.93 1013 10 16 0.01 0.25
10:53 am 10:53 Partly Cloudy 67 19.4 49 9.4 53 53 SSW 16 26 29.91 1013 10 16 0.00 0.00
11:53 am 11:53 Cloudy 65 18.3 48 8.9 54 54 SW 16 26 29.96 1014 10 16 0.00 0.00
12:45 pm 12:45 Cloudy with Heavy Rain 60 15.6 52 11.1 75 75 SW 20 31 30.00 1016 2 3 0.08 2.03
12:51 pm 12:51 Cloudy with Light Rain 61 16 52 11 72 72 WSW 10 17 30.00 1016 3 5 0.08 2.03
12:53 pm 12:53 Cloudy with Light Rain 60 15.6 52 11.1 75 75 SW 14 22 30.00 1016 6 10 0.08 2.03
1:53 pm 13:53 Cloudy 61 16 N/A N/A S 10 17 29.98 1015 10 16 0.01 0.25
2:53 pm 14:53 Cloudy with Light Rain 60 15.6 55 12.8 84 84 S 14 22 29.96 1015 9 14 0.01 0.25
3:09 pm 15:09 Cloudy with Light Rain 60 15.6 55 12.8 84 84 S 21 33 29.96 1015 10 16 0.00 0.00
3:29 pm 15:29 Cloudy with Light Rain 59 15 54 12.2 83 83 SSW 16 26 29.96 1014 10 16 0.01 0.25
3:36 pm 15:36 Cloudy with Light Rain 59 15 54 12.2 83 83 SSW 21 33 29.96 1014 10 16 0.01 0.25
3:53 pm 15:53 Cloudy with Light Rain 59 15 54 12.2 83 83 S 18 30 29.94 1014 9 14 0.03 0.76
4:42 pm 16:42 Cloudy 59 15 54 12.2 83 83 SSW 12 19 29.96 1014 10 16 0.01 0.25
4:53 pm 16:53 Cloudy 60 15.6 54 12.2 80 80 S 13 20 29.95 1014 10 16 0.01 0.25
5:21 pm 17:21 Cloudy with Light Rain 59 15 54 12.2 83 83 SSW 15 24 29.96 1014 8 13 0.00 0.00
5:53 pm 17:53 Cloudy with Light Rain 58 14.4 54 12.2 87 87 S 14 22 29.95 1014 4 6 0.05 1.27
6:41 pm 18:41 Cloudy with Light Rain 58 14.4 54 12.2 87 87 S 14 22 29.95 1014 7 11 0.03 0.76
6:53 pm 18:53 Cloudy 58 14.4 54 12.2 87 87 S 10 17 29.94 1014 7 11 0.03 0.76
7:53 pm 19:53 Mostly Cloudy 58 14.4 54 12.2 87 87 SSW 12 19 29.89 1012 10 16 0.01 0.25
8:53 pm 20:53 Mostly Cloudy 58 14.4 54 12.2 87 87 WSW 8 13 29.94 1014 10 16 0.00 0.00
9:21 pm 21:21 Cloudy 58 14.4 54 12.2 87 87 SSW 9 15 29.95 1014 10 16 0.00 0.00
9:53 pm 21:53 Mostly Cloudy 58 14.4 53 11.7 84 84 SW 9 15 29.97 1015 10 16 0.00 0.00
10:18 pm 22:18 Cloudy 58 14.4 53 11.7 84 84 SW 9 15 30.00 1016 10 16 0.00 0.00
10:53 pm 22:53 Cloudy with Light Rain 58 14.4 54 12.2 87 87 WSW 6 9 30.01 1016 10 16 0.01 0.25
11:34 pm 23:34 Cloudy with Light Rain 57 13.9 54 12.2 90 90 SW 10 17 30.03 1017 5 8 0.06 1.52
11:41 pm 23:41 Cloudy with Light Rain 57 13.9 54 12.2 90 90 SW 10 17 30.03 1017 6 10 0.07 1.78
11:53 pm 23:53 Cloudy with Light Rain 57 13.9 54 12.2 90 90 SW 9 15 30.02 1017 8 13 0.07 1.78

Powered by AerisWeather